Regional Weather Roundup
Issued by NWS

Home | Current Version | Previous Version | Graphics & Text | Print | Product List | Glossary On
Versions: 1 2 3 4 5 6 7 8 9 10 11 12 13 14 15 16 17 18 19 20 21 22 23 24 25 26 27 28
000
ASUS45 KBOU 191610
RWRCO

WEATHER ROUNDUP FOR COLORADO
NATIONAL WEATHER SERVICE DENVER/BOULDER CO
900 AM MST SUN NOV 19 2017

NOTE: "FAIR" INDICATES FEW OR NO CLOUDS BELOW 12000 FEET WITH NO
SIGNIFICANT WEATHER AND/OR OBSTRUCTIONS TO VISIBILITY.

COZ001>005-013-030-031-191700-
...NORTHWEST COLORADO...

CITY           SKY/WX    TMP DP  RH WIND       PRES   REMARKS
CRAIG          FAIR      18  13  80 W3        30.32S
HAYDEN         FAIR      18  10  71 E12       30.32F WCI   5
MEEKER         FAIR      18  12  77 MISG      30.32F
RABBIT EARS PA FAIR      23   9  54 SW6       30.29R WCI  16
STEAMBOAT SPGS FAIR      14   9  80 CALM      30.32S
WALDEN         FAIR      19   5  53 S8        30.28S WCI   9
$$

COZ006>008-011-191700-
...WEST CENTRAL VALLEYS...

CITY           SKY/WX    TMP DP  RH WIND       PRES   REMARKS
GRAND JUNCTION FAIR      29  18  63 SE7       30.39R WCI  22
MONTROSE       FAIR      25  16  68 VRB3      30.40S
EAGLE          FAIR      16  10  77 CALM      30.43S
RIFLE          FAIR      21  16  81 CALM      30.39F
DELTA          FAIR      27  16  62 CALM      30.41R
NUCLA          FAIR      27  10  50 CALM      30.41R
$$

COZ017>023-064>068-191700-
...SOUTHWEST COLORADO...

CITY           SKY/WX    TMP DP  RH WIND       PRES   REMARKS
DURANGO        FAIR      25  18  74 CALM      30.35R
CORTEZ         FAIR      26  14  60 CALM      30.37R
PAGOSA SPRINGS FAIR      31  15  51 CALM      30.35R
TELLURIDE      FAIR      29   5  36 SE3       30.37R
WOLF CREEK PAS FAIR      28  -8  20 S6        30.43R WCI  22
$$

COZ009-010-012-014-032>034-037-058>063-191700-
...CENTRAL COLORADO...

CITY           SKY/WX    TMP DP  RH WIND       PRES   REMARKS
ASPEN          FAIR      22  14  71 CALM      30.32S
BUENA VISTA    FAIR      26  11  54 CALM      30.33S
COPPER MTN     FAIR      28  -6  22 S5        30.34S WCI  23
BERTHOUD PASS  FAIR      16   5  62 NW21G32   30.31R WCI  -2
COTTONWOOD PAS FAIR      36   0  21 CALM      30.33R
GUNNISON       FAIR      12   6  77 CALM      30.45S
KREMMLING      FAIR      19  12  73 CALM      30.41R
LEADVILLE      FAIR      18   4  54 SE3       30.31R
MONARCH PASS   FAIR      21  -8  27 W28       30.44R WCI   3
SALIDA         FAIR      28  12  51 NW10      30.40S WCI  18
SUNLIGHT       FAIR      23  -6  28 SW10      30.38R WCI  12
WILKERSON PASS FAIR      27  -9  20 W14G21    30.32S WCI  15
$$

COZ069>075-191700-
...SAN LUIS VALLEY/SANGRE DE CRISTO MOUNTAINS...

CITY           SKY/WX    TMP DP  RH WIND       PRES   REMARKS
ALAMOSA        FAIR      23  14  68 CALM      30.37R
DEL NORTE      FAIR      27   6  39 W15       30.36S WCI  16
LA VETA PASS   FAIR      27   7  43 SW30G37     N/A  WCI  10
SAGUACHE       FAIR      28   3  34 NW16G22   30.36S WCI  17
$$

COZ035-036-038>040-191700-
...NORTHERN COLORADO FRONT RANGE...

CITY           SKY/WX    TMP DP  RH WIND       PRES   REMARKS
DENVER INTL AP PTSUNNY   41  15  35 S10       30.13F
DMNS CITY PARK   N/A     41  12  29 E5G12     30.13F
AURORA         PTSUNNY   42  14  32 S10       30.14F
FRONT RANGE AP PTSUNNY   45  18  33 S13       30.14F
ERIE MUNI ARPT FAIR      31  24  74 CALM      30.18F
BOULDER MUN AP FAIR      32  19  59 NE6       30.12F WCI  26
CENTENNIAL     PTSUNNY   40  16  37 SE12      30.15F
BROOMFIELD     PTSUNNY   36  19  51 W3        30.13F
FORT COLLINS   FAIR      29  23  78 NE5       30.14S WCI  24
LONGMONT       FAIR      33  25  71 N5        30.15F WCI  28
$$

COZ041-046-047-076>085-087-088-191700-
...PIKES PEAK/PALMER DIVIDE AND SOUTHERN FOOTHILLS...

CITY           SKY/WX    TMP DP  RH WIND       PRES   REMARKS
COLO. SPRINGS  PTSUNNY   44  13  28 E7        30.20S
A. F. ACADEMY  FAIR      42  12  30 CALM      30.18F
SCHRIEVER AFB  FAIR      43  11  27 CALM      30.20F
CHEYENNE MTN   FAIR      44  10  24 E3        30.14F
ELLICOTT       NOT AVBL
FALCON         FAIR      45  -1  15 CALM      30.22S
FORT CARSON    FAIR      40  23  51 NE3       30.18F
LIMON          FAIR      32  24  72 N3        30.18S
MONUMENT HILL  FAIR      39  12  33 SW8       30.21F
CANON CITY     FAIR      46  10  23 W13       30.20F
WALSENBURG     NOT AVBL
TRINIDAD       FAIR      40  15  36 W9        30.23F
$$

COZ042>045-048>051-090-091-191700-
...NORTHEAST COLORADO...

CITY           SKY/WX    TMP DP  RH WIND       PRES   REMARKS
GREELEY ARPT   FAIR      27  20  75 CALM      30.15F
AKRON          FAIR      35  19  52 W12       30.13F WCI  27
BURLINGTON     FAIR      42  20  41 SW13      30.17F
WRAY           NOT AVBL
YUMA           FAIR      36  27  69 W7        30.13F
STERLING       FAIR      28  23  80 SW8       30.14F WCI  20
HOLYOKE        FAIR      36  23  60 W8        30.13F
FORT MORGAN    FAIR      28  19  70 SW8       30.15F WCI  20
$$

COZ086-089-092>099-191700-
...SOUTHEAST COLORADO...

CITY           SKY/WX    TMP DP  RH WIND       PRES   REMARKS
PUEBLO         FAIR      34  26  72 CALM      30.21F
LA JUNTA       FAIR      35  22  58 W8        30.22S WCI  29
LAMAR          FAIR      37  21  52 W12       30.20F
SPRINGFIELD      N/A     49  21  33 W8        30.19F
$$




USA.gov is the U.S. government's official web portal to all federal, state and local government web resources and services.